Location: Hoyos del Collado
(40.3594°N, 5.2003°W)
Time: 10:38:55
(UTC+00:00)

Resurs 01 Rocket - Pass Details

Date: 18 April 2024
Orbit: 631 x 640 km, 97.8° (Epoch: 21 May)

Event Time Altitude Azimuth Distance (km) Brightness Sun altitude
Exits shadow 21:16:36 - 212° (SSW) 2,154 4.2 -23.2°
Reaches altitude 10° 21:17:02 10° 216° (SW) 2,017 4.1 -23.3°
Maximum altitude 21:20:24 22° 266° (W) 1,413 3.8 -23.8°
Drops below altitude 10° 21:23:49 10° 317° (NW) 2,034 5.3 -24.3°
Sets 21:26:29 0° 333° (NNW) 2,950 6.2 -24.7°
